Tracking 28531 objects as of 27-Feb-2024
HD Live streaming from Space Station
objects crossing your sky now

TITAN 3C TRANSTAGE DEB

Track TITAN 3C TRANSTAGE DEB now!


NORAD ID: 43455
Int'l Code: 1969-013N
Perigee: 36,943.9 km
Apogee: 38,322.8 km
Inclination: 1.9 °
Period: 1,531.1 minutes
Semi major axis: 44004 km
RCS: Unknown
Launch date: February 9, 1969
Source: United States (US)
Launch site: AIR FORCE EASTERN TEST RANGE (AFETR)

Note: This is SATELLITE DEBRIS
Your satellite tracking list
Your tracking list is empty




NASA's NSSDC Master Catalog

Two Line Element Set (TLE):
1 43455U 69013N   24057.36389942 -.00000150  00000-0  00000+0 0  9998
2 43455   1.8690 232.9494 0156671  18.2078 341.4764  0.94050201 20420
Source of the keplerian elements: AFSPC